User: anonymous   Login
Location: Cahas Mountain Overlook
(37.0833°N, 80.1000°W)
Time: 15:25:51
(UTC-04:00)
Language:

COSMOS 2251 DEB - Orbit

View from above orbital plane
View from above orbital plane
View from above satellite
View from above satellite

Ground track
Ground track

The orbit data is extracted from the following two-line orbital elements,

1 35023U 93036AGL 22225.59779856  .00002686  00000-0  54697-3 0  9999
2 35023  74.0515  63.7734 0065274  97.0828 319.3658 14.60179837703545
Epoch (UTC): 13 August 2022 14:20:49
Eccentricity: 0.0065274
inclination: 74.0515°
perigee height: 646 km
apogee height: 739 km
right ascension of ascending node: 63.7734°
argument of perigee: 97.0828°
revolutions per day: 14.60179837
mean anomaly at epoch: 319.3658°
orbit number at epoch: 70354

The dashed part of the orbit path shows where the satellite is in the earth's shadow,  

DLR